{"data":{"norad_id":65871,"intl_designator":"2025-223T","name":"STARLINK-35465","alt_names":[],"object_type":"PAYLOAD","status":"ACTIVE","operator":null,"country":"US","launch_date":"2025-10-03","launch_site_code":"AFWTR","launch_vehicle":null,"mission":null,"orbit_class":"UNKNOWN","rcs_meters":null,"size_class":null,"mass_kg":null,"dimensions":null,"purposes":["comms"],"wikipedia_slug":null,"has_3d_model":false,"image_url":null,"decayed_at":null,"tle_current":{"epoch":"2026-09-20T22:18:08.325792Z","epoch_age_seconds":68980,"freshness":"FRESH","line1":"1 65871U 25223T   26263.92926303  .00041633  00000+0  12358-2 0  9991","line2":"2 65871  53.1589 105.4688 0000775 131.8297 228.2772 15.34418299 54120","mean_motion":15.34418299,"eccentricity":7.75e-5,"inclination_deg":53.1589,"raan_deg":105.4688,"arg_perigee_deg":131.8297,"mean_anomaly_deg":228.2772,"bstar":0.0012358,"rev_number":5412,"period_min":93.846638881879,"perigee_km":462.11869135973,"apogee_km":463.17901316683,"semimajor_km":6840.7858522633,"source":"CELESTRAK","updated_at":"2026-09-21T09:00:35.752171Z"}}}